{"data":{"norad_id":66151,"intl_designator":"2025-240F","name":"STARLINK-35540","alt_names":[],"object_type":"PAYLOAD","status":"ACTIVE","operator":null,"country":"US","launch_date":"2025-10-25","launch_site_code":"AFWTR","launch_vehicle":null,"mission":null,"orbit_class":"UNKNOWN","rcs_meters":null,"size_class":null,"mass_kg":null,"dimensions":null,"purposes":["comms"],"wikipedia_slug":null,"has_3d_model":false,"image_url":null,"decayed_at":null,"tle_current":{"epoch":"2026-05-25T04:43:55.260768Z","epoch_age_seconds":51911,"freshness":"FRESH","line1":"1 66151U 25240F   26145.19716737  .00026789  00000+0  80109-3 0  9993","line2":"2 66151  53.1599  66.6220 0001180  88.2293 271.8844 15.34402794 33714","mean_motion":15.34402794,"eccentricity":0.000118,"inclination_deg":53.1599,"raan_deg":66.622,"arg_perigee_deg":88.2293,"mean_anomaly_deg":271.8844,"bstar":0.00080109,"rev_number":3371,"period_min":93.847587193588,"perigee_km":461.88771769447,"apogee_km":463.50215403133,"semimajor_km":6840.8319358629,"source":"CELESTRAK","updated_at":"2026-05-25T13:38:21.069523Z"}}}